Find Starlink 31965

NORAD ID: 59888 Int'l Des: 2024-100 Owner: SPXS Country: US Constellation: starlink operational
LEOCIRCULAR

Current View

Loading 3D Globe...

About Starlink 31965

Starlink 31965 (NORAD 59888) is a starlink constellation satellite (v2 mini) launched May 28, 2024 by SPXS of US. It operates in LEO, CIRCULAR orbit with a mass of 730.00 kg.

Upcoming Passes

Passes for default location (London). Set your location on the main map for personalized predictions.

Altitude History

Loading altitude history...

Two-Line Element Set

1 59888U 24100D 26237.11796883 .00005248 00000-0 20009-3 0 9991
2 59888 43.0011 254.3925 0001766 271.3899 88.6750 15.27580569126818
Epoch: Aug 25, 2026 • Age: 11 hours

Current Status

Altitude 482.8 km
Apogee / Perigee N/A
Velocity 7.63 km/s
Sub-Earth Point -0.62°S, 70.12°E
Launch Date May 28, 2024
Age 2.2 years
Type internet

Technical Details

Classification Payload
Mass 730.00 kg
Dry Mass 700.00 kg
Total Mass 730.00 kg
Length 0.30 m
Diameter 4.10 m
Span 29.00 m
Shape Box + pan
Manufacturer SPXS
Bus Type Starlink V2M
Phase Status In Orbit
Owner/State SPXS/US

Most Searched